Saint Anthony, North Dakota
Current Conditions -  °F | °C
As of 1:55 PM on Saturday 20 Dec 2014 (Local Time) from KY19 Reporting Station
Unknown Precip Unknown Precip  
Wind Chill: 26°   Ceiling: 6000
Heat Index: 32°   Visibility: 10mi
Dew Point: 32°   Wind: 7mph
Humidity: 100%   Direction: 220°SW
Pressure: 29.84"   Gusts: NA
Location:  46.62°N, 100.91°W
Report Text: KY19 202055Z AUTO 22006KT 10SM UP OVC060 00/00 A2984 RMK AO2
Loading
Personal Weather Stations






























Interactive Weather Map New forecast layout! Learn more

10-Day Weather Forecast

Advertisements
Track Severe Weather on mobile